Location: Cerezo de Arriba
(41.2389°N, 3.5585°W)
Time: 02:16:30
(UTC+00:00)

Cosmos 2341 Rocket - Pass Details

Date: 19 May 2025
Orbit: 966 x 1004 km, 82.9° (Epoch: 24 June)

Event Time Altitude Azimuth Distance (km) Brightness Sun altitude
Rises 21:39:37 0° 352° (N) 3,688 8.0 -19.5°
Reaches altitude 10° 21:42:09 10° 353° (N) 2,731 7.2 -19.8°
Maximum altitude 21:48:25 86° 83° (E) 978 3.9 -20.5°
Enters shadow 21:51:17 35° 170° (S) 1,525 4.5 -20.8°
